[[{"header":{"parameterUnit":"m.s-1","parameterCategory":1,"la1":30.2992,"la2":30.254,"lo1":-89.0895,"lo2":-89.0443,"dy":0.0025,"dx":0.0025,"nx":19,"ny":19,"refTime":"2026-03-27T21:00:00:Z","depth":0,"parameterNumber":2,"parameterNumberName":"U-component_of_WINDS"},"data":[0,0,0,-7.7849,-7.7852,-7.7983,-7.7983,-7.8177,-7.8179,0,0,0,0,0,0,0,0,0,0,0,-7.7827,-7.7829,-7.7849,-7.7852,-7.7983,-7.7983,-7.8176,-7.8179,0,0,0,0,0,0,0,0,0,0,0,-7.7826,-7.7828,-7.7831,-7.7853,-7.7983,-7.7983,-7.8176,-7.8068,0,0,0,0,0,0,0,0,0,0,-7.7936,-7.7933,-7.7828,-7.7831,-7.7854,-7.7983,-7.7983,-7.8062,-7.8075,-7.8129,0,-7.8184,0,-7.8185,-7.8194,-7.8194,0,0,0,-7.7839,-7.7923,-7.7943,-7.7831,-7.7855,-7.7982,-7.792,-7.8069,-7.8083,-7.8146,-7.8186,-7.8193,-7.8188,-7.8195,-7.8196,-7.8559,-7.8561,0,0,-7.7832,-7.7859,-7.7933,-7.7953,-7.7936,-7.7916,-7.7924,-7.8077,-7.8122,-7.8187,-7.8197,-7.8191,-7.8197,-7.8198,-7.8557,-7.856,0,0,0,-7.782,-7.7855,-7.787,-7.7946,-7.7967,-7.792,-7.793,-7.8115,-7.8118,-7.8198,-7.8193,-7.8198,-7.82,-7.8554,-7.8558,-7.8697,0,0,0,-7.7815,-7.7848,-7.7868,-7.7886,-7.7965,-7.8043,-7.7965,-7.8107,-7.8124,-7.8192,-7.8198,-7.8203,-7.8552,-7.8556,-7.8688,-7.8757,0,0,0,-7.7813,-7.7847,-7.7872,-7.7887,-7.7945,-7.804,-7.8051,-7.811,-7.8121,-7.8195,-7.8203,-7.855,-7.8555,-7.868,-7.8743,-7.8859,0,0,0,-7.7817,-7.7994,-7.7875,-7.807,-7.7944,-7.8127,-7.805,-7.8184,-7.8264,-7.8199,-7.8552,-7.8558,-7.8677,-7.8735,-7.8851,-7.896,-7.9009,0,0,-7.8055,-7.8024,-7.8136,-7.8034,-7.8244,-7.8104,-7.8335,-7.8382,-7.8364,-7.8495,-7.8503,-7.8691,-7.8743,-7.8858,-7.9278,-7.9317,0,0,0,-7.8221,-7.8302,-7.8352,-7.843,-7.8472,-7.8512,-7.8521,-7.8539,-7.8649,-7.8437,-7.8765,-7.8795,-7.8861,-7.8912,-7.8945,-7.8999,-7.8583,-7.8583,-7.8582,-7.8593,-7.8562,-7.8746,-7.8732,-7.8809,-7.8818,-7.8877,-7.8902,-7.8847,-7.8925,-7.8962,-7.9222,-7.9282,-7.9307,-7.9364,-7.902,-7.9021,-7.9022,-7.9022,-7.8936,-7.9044,-7.8971,-7.9122,-7.9089,-7.9216,-7.9233,-7.919,-7.9302,-7.9191,-7.9247,-7.9125,-7.9351,-7.9399,-7.9032,-7.903,-7.9029,-7.9028,-7.9027,-7.9173,-7.922,-7.924,-7.9351,-7.944,-7.9419,-7.9531,-7.9497,-7.9466,-7.9522,-7.9557,-7.9554,-7.9545,-7.9542,-7.9543,-7.9544,-7.9545,-7.9545,-7.9546,-7.9409,-7.9428,-7.9527,-7.9588,-7.9634,-7.9691,-7.9704,-7.9748,-7.9788,-7.9754,-7.9754,-7.9691,-7.938,-7.9301,-7.956,-7.9557,-7.9555,-7.9554,-7.9553,-7.9762,-7.9678,-7.983,-7.9877,-7.9946,-8.0037,-7.9994,-8.0087,-8.0119,-8.0175,-8.0102,-7.9879,-7.9843,-7.9816,-7.975,-8.0109,-8.0109,-8.0109,-8.0109,-7.996,-7.994,-8.0089,-8.0166,-8.0237,-8.0215,-8.0388,-8.0401,-8.0401,-8.0419,-8.0363,-8.0274,-8.0248,-8.0227,-8.0192,-8.0129,-8.0577,-8.0577,-8.0578,-8.0174,-8.016,-8.0313,-8.0313,-8.0366,-8.0412,-8.0573,-8.0664,-8.0646,-8.0596,-8.0431,-8.0412,-8.0267,-8.0222,-8.0163,-8.0109,-7.9993,0,0]},{"header":{"parameterUnit":"m.s-1","parameterCategory":1,"la1":30.2992,"la2":30.254,"lo1":-89.0895,"lo2":-89.0443,"dy":0.0025,"dx":0.0025,"nx":19,"ny":19,"refTime":"2026-03-27T21:00:00:Z","depth":0,"parameterNumber":3,"parameterNumberName":"V-component_of_WINDS"},"data":[0,0,0,2.3382,2.3383,2.3449,2.3449,2.3528,2.3529,0,0,0,0,0,0,0,0,0,0,0,2.3359,2.336,2.3381,2.3383,2.3449,2.3449,2.3528,2.3529,0,0,0,0,0,0,0,0,0,0,0,2.3359,2.336,2.336,2.3383,2.3449,2.3449,2.3528,2.348,0,0,0,0,0,0,0,0,0,0,2.3417,2.3394,2.336,2.336,2.3384,2.3449,2.3449,2.3478,2.3483,2.3497,0,2.3509,0,2.352,2.3534,2.3534,0,0,0,2.3384,2.3389,2.341,2.3361,2.3384,2.3448,2.3419,2.3481,2.3487,2.3504,2.351,2.3513,2.3522,2.3534,2.3535,2.3612,2.3613,0,0,2.3381,2.3369,2.3406,2.3414,2.3404,2.3417,2.3421,2.3484,2.349,2.351,2.3515,2.3523,2.3535,2.3536,2.3612,2.3612,0,0,0,2.3369,2.3367,2.3386,2.341,2.3423,2.3419,2.3424,2.3487,2.3494,2.3516,2.3524,2.3535,2.3536,2.3612,2.3612,2.3616,0,0,0,2.3367,2.336,2.3384,2.3378,2.3421,2.3456,2.3425,2.349,2.3497,2.3523,2.3535,2.3537,2.3611,2.3612,2.3615,2.3619,0,0,0,2.3356,2.3359,2.3368,2.3377,2.3405,2.3455,2.3466,2.3492,2.3502,2.3534,2.3537,2.3611,2.3612,2.3615,2.3618,2.3637,0,0,0,2.334,2.3368,2.3368,2.3403,2.3404,2.3458,2.3466,2.3505,2.3533,2.3536,2.3611,2.3612,2.3615,2.3617,2.3636,2.3651,2.3656,0,0,2.3369,2.3371,2.3393,2.3395,2.3445,2.3448,2.35,2.3535,2.3548,2.359,2.3592,2.3616,2.3618,2.3637,2.3689,2.3693,0,0,0,2.3399,2.3414,2.343,2.3458,2.3487,2.3513,2.3542,2.3556,2.3593,2.3567,2.3628,2.363,2.3642,2.3649,2.3652,2.3663,2.3615,2.3615,2.3615,2.3422,2.3439,2.3477,2.3503,2.353,2.3562,2.3585,2.3609,2.3616,2.3631,2.3643,2.3672,2.3681,2.3683,2.3694,2.3652,2.3652,2.3652,2.3652,2.3466,2.3491,2.3505,2.3546,2.3564,2.3599,2.3632,2.3637,2.3672,2.3664,2.3675,2.3664,2.3687,2.3698,2.3653,2.3653,2.3653,2.3653,2.3653,2.3482,2.3497,2.3516,2.356,2.3591,2.3617,2.3651,2.3666,2.368,2.3692,2.3707,2.3707,2.3708,2.3698,2.3698,2.3698,2.3698,2.3699,2.3699,2.3491,2.3512,2.354,2.3577,2.3598,2.3628,2.3663,2.3684,2.3711,2.3719,2.372,2.3726,2.3687,2.3676,2.37,2.37,2.37,2.37,2.3699,2.3528,2.3523,2.3565,2.3587,2.3633,2.3665,2.3686,2.3728,2.3748,2.3764,2.377,2.3739,2.3741,2.3738,2.373,2.3766,2.3766,2.3766,2.3766,2.3541,2.3545,2.3594,2.3628,2.3663,2.3687,2.3735,2.3764,2.3793,2.3806,2.3804,2.3794,2.3791,2.3795,2.3791,2.3783,2.3833,2.3833,2.3833,2.3565,2.3574,2.3611,2.3642,2.368,2.3713,2.3759,2.3797,2.3828,2.3836,2.3817,2.3815,2.3799,2.3793,2.3797,2.3791,2.3777,0,0]}]]